sat.trackr.live / text

‹ back to catalog

STARLINK-4712

NORAD 53798 · 2022-111AB

PAYLOAD ACTIVE UNKNOWN

§ Identity

Operator
Country
US
Launch date
2022-09-11
Launch site
AFETR
Launch vehicle
Mass (kg)
RCS (m²)

Purposes: comms

External: N2YO · Heavens-Above · Gunter

§ Orbital elements

Epoch: 2026-09-20T04:25:01.526880Z

Period
94.01 min
Inclination
53.1590°
Eccentricity
0.0001333
Mean motion
15.31697892 rev/d
Perigee alt
469.8 km
Apogee alt
471.7 km
Semi-major
6,848.9 km
B*
1.8189e-5
RAAN
107.3424°
Arg perigee
84.4158°
Mean anomaly
275.6995°
Rev number
22,322

§ Raw data

STARLINK-47121 53798U 22111AB  26263.18404545  .00000199  00000+0  18189-4 0  99982 53798  53.1590 107.3424 0001333  84.4158 275.6995 15.31697892223223

JSON: /api/v1/satellites/53798 · /tle

For live sub-satellite position, see the globe view (requires WebGL).

§ Visibility from observer

Set your observer location to see the next 7 days of passes ≥ 10°. The values pass through the URL so the page stays shareable.

No JS? Fill the form by hand. The geolocation button needs JavaScript.